Orbital Elements at Epoch 2459200.5 (2020-Dec-17.0) TDB
Reference: JPL 19 (heliocentric ecliptic J2000)
Element | Value | Uncertainty (1-sigma) | Units |
e | .1197730887672325 | 5.222e-08 | |
a | 2.983483410578629 | 2.3591e-08 | au |
q | 2.626142387207829 | 1.629e-07 | au |
i | 10.89185443431867 | 5.8789e-06 | deg |
node | 329.9892810343059 | 2.1946e-05 | deg |
peri | 345.599312834515 | 2.9295e-05 | deg |
M | 291.874820166894 | 2.2425e-05 | deg |
tp | 2459556.695992355707 (2021-Dec-08.19599236) | 0.00011966 | TDB |
period | 1882.278440397447 5.15 | 2.2326e-05 6.113e-08 | d yr |
n | .1912575696951537 | 2.2685e-09 | deg/d |
Q | 3.340824433949428 | 2.6417e-08 | au |
|
| | Orbit Determination Parameters
Additional Information
|